Deer Park, WA

4:55 PM PDT on October 21, 2017 (GMT -0700)
Deer Park

Weather History for KDEW - January, 2014

Change the Weather History Date:

Sunday, January 5, 2014

  Actual Average Record
Temperature  
Mean Temperature 19 °F 26 °F  
Max Temperature 32 °F 32 °F 47 °F (2012)
Min Temperature 6 °F 20 °F -27 °F (2004)
Degree Days  
Heating Degree Days 46 39  
Month to date heating degree days 190 198  
Since 1 July heating degree days 3401 3425  
Cooling Degree Days 0 0  
Month to date cooling degree days 0 0  
Year to date cooling degree days 0 0  
Moisture  
Dew Point 12 °F    
Average Humidity 71    
Maximum Humidity 92    
Minimum Humidity 49    
Precipitation  
Precipitation 0.00 in 0.10 in 0.33 in (2007)
Month to date precipitation T 0.53  
Year to date precipitation T 0.53  
Sea Level Pressure  
Sea Level Pressure 30.60 in    
Wind  
Wind Speed 2 mph (NE)    
Max Wind Speed 9 mph    
Max Gust Speed 12 mph    
Visibility 10 miles    
Events      
T = Trace of Precipitation, MM = Missing Value Source: NWS Daily Summary

Daily Weather History Graph

Daily Weather History Graph

Search for Another Location

Airport or City:

Trip Planner

Search our weather history database for the weather conditions in past years. The results will help you decide how hot, cold, wet, or windy it might be!

Date:

Astronomy

Jan. 05, 2014 Rise Set
Actual Time 7:38 AM PST 4:11 PM PST
Civil Twilight 7:03 AM PST 4:47 PM PST
Nautical Twilight 6:23 AM PST 5:26 PM PST
Astronomical Twilight 5:46 AM PST 6:04 PM PST
Moon 9:58 AM PST (1/5) 10:11 PM PST (1/5)
Length of Visible Light 9h 44m
Length of Day
8h 32m
Waxing Crescent, 25% of the Moon is Illuminated
Jan 5
Waxing Crescent
Jan 7
First Quarter
Jan 15
Full
Jan 23
Last Quarter
Jan 30
New

Hourly Weather History & Observations

Time (PST) Temp. Windchill Dew Point Humidity Pressure Visibility Wind Dir Wind Speed Gust Speed Precip Events Conditions
12:53 AM 15.1 °F - 10.9 °F 84% 30.46 in 10.0 mi Calm Calm - N/A   Clear
1:53 AM 12.9 °F - 9.0 °F 84% 30.50 in 10.0 mi Calm Calm - N/A   Clear
2:53 AM 12.0 °F - 10.0 °F 92% 30.51 in 10.0 mi Calm Calm - N/A   Clear
3:53 AM 12.9 °F - 9.0 °F 84% 30.53 in 10.0 mi Calm Calm - N/A   Clear
4:53 AM 10.9 °F 4.7 °F 8.1 °F 88% 30.56 in 10.0 mi ENE 3.5 mph - N/A   Clear
5:53 AM 9.0 °F 2.4 °F 7.0 °F 92% 30.58 in 10.0 mi NNE 3.5 mph - N/A   Clear
6:53 AM 12.0 °F 1.5 °F 7.0 °F 80% 30.60 in 10.0 mi NE 6.9 mph - N/A   Clear
7:53 AM 14.0 °F - 9.0 °F 80% 30.62 in 10.0 mi Calm Calm - N/A   Clear
8:53 AM 17.1 °F 7.6 °F 10.9 °F 77% 30.65 in 10.0 mi WNW 6.9 mph - N/A   Clear
9:53 AM 26.1 °F 21.9 °F 15.1 °F 63% 30.65 in 10.0 mi East 3.5 mph - N/A   Clear
10:53 AM 30.0 °F 23.2 °F 14.0 °F 51% 30.65 in 10.0 mi NNE 6.9 mph - N/A   Clear
11:53 AM 30.0 °F - 15.1 °F 54% 30.64 in 10.0 mi Calm Calm - N/A   Clear
12:53 PM 30.9 °F 27.5 °F 15.1 °F 52% 30.63 in 10.0 mi South 3.5 mph - N/A   Clear
1:53 PM 30.9 °F - 15.1 °F 52% 30.63 in 10.0 mi Calm Calm - N/A   Clear
2:53 PM 30.9 °F - 14.0 °F 50% 30.62 in 10.0 mi Calm Calm - N/A   Clear
3:53 PM 30.9 °F - 14.0 °F 50% 30.63 in 10.0 mi Calm Calm - N/A   Overcast
4:53 PM 26.1 °F - 15.1 °F 63% 30.63 in 10.0 mi Calm Calm - N/A   Overcast
5:53 PM 27.0 °F - 17.1 °F 66% 30.63 in 10.0 mi Calm Calm - N/A   Overcast
6:53 PM 27.0 °F - 17.1 °F 66% 30.61 in 10.0 mi Calm Calm - N/A   Overcast
7:53 PM 23.0 °F - 15.1 °F 72% 30.61 in 10.0 mi Calm Calm - N/A   Clear
8:53 PM 21.0 °F - 14.0 °F 74% 30.61 in 10.0 mi Calm Calm - N/A   Clear
9:53 PM 15.1 °F - 10.0 °F 80% 30.61 in 10.0 mi Calm Calm - N/A   Clear
10:53 PM 16.0 °F - 10.9 °F 81% 30.59 in 10.0 mi Calm Calm - N/A   Clear
11:53 PM 10.9 °F 4.7 °F 8.1 °F 88% 30.58 in 10.0 mi North 3.5 mph - N/A   Clear